[[{"header":{"parameterUnit":"m.s-1","parameterCategory":1,"la1":30.2991,"la2":30.254,"lo1":-89.0895,"lo2":-89.0444,"dx":0.0017,"dy":0.0017,"nx":28,"ny":28,"refTime":"2023-01-27T09:00:00:Z","depth":0,"parameterNumber":2,"parameterNumberName":"U-component_of_WINDS"},"data":[0,0,0,0,0,0,0,0,0,0,0,0,0,0,0,0,0,0,0,0,0,0,0,0,0,0,0,0,0,0,0,0,0,0,0,0,0,0,0,0,0,0,0,0,0,0,0,0,0,0,0,0,0,0,0,0,0,0,-5.2267,-5.2268,0,-5.2369,-5.237,-5.2371,-5.2361,-5.236,-5.2358,-5.2357,-5.2457,-5.2461,-5.2465,0,0,0,0,0,0,0,0,0,0,0,0,0,-5.2061,-5.2065,-5.2266,-5.2268,-5.2269,-5.2368,-5.237,-5.2371,-5.2362,-5.236,-5.2358,-5.2356,-5.2455,-5.246,-5.2465,0,0,0,0,0,0,0,0,0,0,0,0,0,-5.2155,-5.2066,-5.2266,-5.2276,-5.2278,-5.2368,-5.237,-5.2371,-5.2362,-5.236,-5.2357,-5.2355,-5.2454,-5.246,-5.2466,-5.2551,0,0,-5.2485,-5.2487,0,0,0,0,0,0,0,0,-5.215,-5.2163,-5.2274,-5.2276,-5.2278,-5.235,-5.2334,-5.2431,-5.2363,-5.233,-5.2357,-5.2354,-5.2423,-5.2431,-5.2455,-5.2555,-5.256,-5.2485,-5.2489,-5.2492,-5.2493,0,0,0,0,0,0,0,-5.2143,-5.2158,-5.2307,-5.2275,-5.2278,-5.2275,-5.2286,-5.2352,-5.2388,-5.2333,-5.2332,-5.2345,-5.2423,-5.2449,-5.2458,-5.2561,-5.2485,-5.2491,-5.2494,-5.2497,-5.2737,-5.2739,0,0,0,0,0,0,-5.2135,-5.2153,-5.2303,-5.231,-5.2207,-5.2281,-5.2293,-5.2329,-5.2387,-5.2394,-5.2347,-5.2344,-5.244,-5.245,-5.2461,-5.2564,-5.2492,-5.2497,-5.2501,-5.2734,-5.2738,-5.274,0,0,0,0,0,0,-5.2131,-5.2148,-5.2299,-5.2231,-5.225,-5.2287,-5.2328,-5.2332,-5.2358,-5.2398,-5.2404,-5.2367,-5.2439,-5.2452,-5.2529,-5.2567,-5.25,-5.2506,-5.2731,-5.2735,-5.2739,-5.277,0,0,0,0,0,0,-5.2125,-5.2147,-5.218,-5.2232,-5.2254,-5.2366,-5.233,-5.2336,-5.2369,-5.2367,-5.2418,-5.2425,-5.2438,-5.252,-5.2535,-5.2575,-5.2511,-5.2728,-5.2733,-5.2738,-5.2766,-5.2775,-5.2783,0,0,0,0,0,-5.2117,-5.2183,-5.2181,-5.22,-5.2296,-5.2368,-5.238,-5.2396,-5.2373,-5.2406,-5.2432,-5.2423,-5.2562,-5.2528,-5.2545,-5.2587,-5.2725,-5.2731,-5.2737,-5.2762,-5.2773,-5.2783,0,0,0,0,0,0,-5.2132,-5.219,-5.2189,-5.2274,-5.2317,-5.2366,-5.2408,-5.2407,-5.2455,-5.245,-5.2466,-5.2478,-5.2555,-5.2579,-5.254,-5.2673,-5.264,-5.265,-5.2653,-5.2664,-5.2672,-5.2663,-5.2516,0,0,0,0,0,-5.2146,-5.22,-5.2248,-5.2319,-5.234,-5.2371,-5.2403,-5.2412,-5.2455,-5.2473,-5.2504,-5.2546,-5.2599,-5.2634,-5.2685,-5.2771,-5.2782,-5.2809,-5.2817,-5.2824,-5.283,-5.2878,-5.289,-5.276,-5.276,-5.276,0,0,-5.2173,-5.2212,-5.2245,-5.2323,-5.2356,-5.2412,-5.2386,-5.2445,-5.2486,-5.2481,-5.2555,-5.2581,-5.2629,-5.2711,-5.2748,-5.2733,-5.287,-5.2831,-5.2836,-5.284,-5.2885,-5.2898,-5.2909,-5.2764,-5.2764,-5.2763,0,0,-5.2251,-5.2287,-5.2349,-5.2385,-5.2438,-5.2458,-5.2474,-5.2525,-5.2542,-5.2617,-5.2615,-5.2664,-5.2756,-5.279,-5.2819,-5.2915,-5.2909,-5.2932,-5.2973,-5.302,-5.303,-5.3039,-5.3071,-5.3083,-5.2939,-5.2939,-5.294,0,-5.2277,-5.2362,-5.2381,-5.2442,-5.2476,-5.2478,-5.254,-5.2574,-5.264,-5.2663,-5.2646,-5.2762,-5.2794,-5.2884,-5.2908,-5.2933,-5.295,-5.2924,-5.3027,-5.3036,-5.3045,-5.3076,-5.3089,-5.2942,-5.2941,-5.2941,-5.2941,0,-5.2391,-5.245,-5.2495,-5.2561,-5.26,-5.2662,-5.269,-5.2728,-5.2735,-5.2757,-5.2834,-5.2874,-5.2934,-5.2957,-5.2962,-5.3048,-5.3037,-5.3024,-5.2991,-5.3059,-5.3089,-5.3101,-5.2945,-5.2944,-5.2943,-5.2943,0,0,-5.2476,-5.2555,-5.2571,-5.2601,-5.2662,-5.2707,-5.277,-5.283,-5.2862,-5.2909,-5.296,-5.304,-5.3029,-5.3062,-5.3073,-5.3114,-5.3186,-5.3096,-5.3097,-5.3109,-5.3282,-5.3289,-5.3302,-5.3184,-5.3187,-5.3189,-5.3277,0,-5.2558,-5.2669,-5.269,-5.2787,-5.2841,-5.2846,-5.29,-5.2943,-5.2967,-5.3016,-5.3042,-5.3097,-5.3079,-5.31,-5.3141,-5.3168,-5.322,-5.3163,-5.323,-5.3232,-5.3215,-5.3318,-5.3325,-5.3406,-5.3289,-5.3291,-5.3292,0,-5.2667,-5.2719,-5.2821,-5.2876,-5.29,-5.2949,-5.3006,-5.3054,-5.3103,-5.3118,-5.3158,-5.3164,-5.3229,-5.3197,-5.3286,-5.3246,-5.3276,-5.3294,-5.3298,-5.3302,-5.3264,-5.3322,-5.3433,-5.3444,-5.3311,-5.3309,-5.3308,0,-5.2716,-5.2812,-5.2886,-5.2912,-5.2978,-5.3012,-5.3042,-5.3089,-5.3124,-5.3175,-5.3198,-5.3256,-5.3286,-5.333,-5.3352,-5.3327,-5.344,-5.3409,-5.3452,-5.3451,-5.3471,-5.3469,-5.3586,-5.3496,-5.3496,-5.3496,-5.3496,0,-5.2803,-5.2865,-5.2909,-5.2953,-5.3023,-5.3048,-5.3116,-5.3145,-5.3187,-5.3238,-5.3246,-5.3293,-5.3321,-5.3372,-5.339,-5.346,-5.3475,-5.3487,-5.349,-5.3484,-5.3482,-5.3501,-5.3495,-5.3499,-5.3498,-5.3498,-5.3497,0,-5.2867,-5.2899,-5.298,-5.3038,-5.3054,-5.3103,-5.3152,-5.3196,-5.3222,-5.3285,-5.3301,-5.3341,-5.3402,-5.343,-5.3504,-5.3517,-5.3596,-5.3597,-5.3579,-5.358,-5.362,-5.3615,-5.375,-5.3768,-5.3669,-5.367,-5.3671,0,-5.2919,-5.2967,-5.3031,-5.3066,-5.3097,-5.3153,-5.3191,-5.3218,-5.3256,-5.3318,-5.3354,-5.3416,-5.3466,-5.3563,-5.3597,-5.3655,-5.3655,-5.3699,-5.3664,-5.3656,-5.3653,-5.3649,-5.3653,-5.3704,-5.3705,-5.3706,-5.3706,0,-5.3006,-5.3021,-5.3075,-5.3136,-5.318,-5.3229,-5.3276,-5.3305,-5.3339,-5.3382,-5.3445,-5.3485,-5.3563,-5.3623,-5.3684,-5.3713,-5.3715,-5.3718,-5.3731,-5.3723,-5.371,-5.3715,-5.3593,-5.3714,-5.3713,-5.3712,-5.3712,-5.3712,-5.3064,-5.3107,-5.316,-5.322,-5.326,-5.3305,-5.3349,-5.3382,-5.3436,-5.3502,-5.3516,-5.3582,-5.3633,-5.3714,-5.3746,-5.3799,-5.3788,-5.3807,-5.3811,-5.3814,-5.3815,-5.3705,-5.381,-5.381,-5.381,-5.381,-5.381,0,-5.315,-5.3185,-5.3241,-5.3309,-5.3356,-5.3359,-5.3412,-5.3451,-5.351,-5.3558,-5.3609,-5.3682,-5.3742,-5.3783,-5.3844,-5.3878,-5.388,-5.3892,-5.3888,-5.3895,-5.3822,-5.3804,-5.3889,-5.3889,-5.3889,-5.3889,-5.3889,-5.3889,-5.32,-5.3273,-5.3295,-5.3388,-5.3423,-5.3489,-5.352,-5.3562,-5.36,-5.3682,-5.3732,-5.376,-5.3805,-5.387,-5.3925,-5.3936,-5.3956,-5.3968,-5.3978,-5.3908,-5.39,-5.3892,-5.3875,-5.3974,-5.3974,-5.4046,-5.4047,-5.4048]},{"header":{"parameterUnit":"m.s-1","parameterCategory":1,"la1":30.2991,"la2":30.254,"lo1":-89.0895,"lo2":-89.0444,"dx":0.0017,"dy":0.0017,"nx":28,"ny":28,"refTime":"2023-01-27T09:00:00:Z","depth":0,"parameterNumber":3,"parameterNumberName":"V-component_of_WINDS"},"data":[0,0,0,0,0,0,0,0,0,0,0,0,0,0,0,0,0,0,0,0,0,0,0,0,0,0,0,0,0,0,0,0,0,0,0,0,0,0,0,0,0,0,0,0,0,0,0,0,0,0,0,0,0,0,0,0,0,0,3.2591,3.2592,0,3.2672,3.2673,3.2674,3.2677,3.2676,3.2675,3.2674,3.2753,3.2756,3.2759,0,0,0,0,0,0,0,0,0,0,0,0,0,3.2438,3.244,3.2591,3.2592,3.2593,3.2672,3.2673,3.2674,3.2677,3.2676,3.2675,3.2674,3.2752,3.2755,3.2759,0,0,0,0,0,0,0,0,0,0,0,0,0,3.251,3.2441,3.2591,3.2604,3.2606,3.2672,3.2673,3.2674,3.2677,3.2676,3.2674,3.2673,3.2751,3.2755,3.2759,3.2816,0,0,3.2773,3.2775,0,0,0,0,0,0,0,0,3.2506,3.2515,3.2601,3.2603,3.2605,3.2663,3.2648,3.2722,3.2678,3.265,3.2674,3.2672,3.2724,3.273,3.2749,3.282,3.2823,3.2774,3.2776,3.2778,3.278,0,0,0,0,0,0,0,3.2501,3.2512,3.2623,3.2602,3.2605,3.2606,3.2614,3.2662,3.2694,3.2652,3.2653,3.2663,3.2725,3.2744,3.2751,3.2824,3.2773,3.2777,3.278,3.2782,3.295,3.2952,0,0,0,0,0,0,3.2493,3.2508,3.262,3.2625,3.2551,3.261,3.2619,3.2646,3.2693,3.2699,3.2664,3.2662,3.2737,3.2745,3.2753,3.2826,3.2778,3.2782,3.2785,3.2948,3.2951,3.2953,0,0,0,0,0,0,3.249,3.2503,3.2617,3.2567,3.2581,3.2614,3.2644,3.2648,3.2668,3.2702,3.2707,3.2678,3.2737,3.2747,3.2802,3.2828,3.2784,3.2789,3.2946,3.2949,3.2952,3.2969,0,0,0,0,0,0,3.2486,3.2502,3.2524,3.2567,3.2584,3.2664,3.2645,3.2651,3.2676,3.2675,3.2717,3.2722,3.2736,3.2795,3.2806,3.2834,3.2792,3.2944,3.2948,3.2951,3.2966,3.2972,3.2977,0,0,0,0,0,3.248,3.2523,3.2525,3.2538,3.2612,3.2666,3.2675,3.2691,3.2678,3.2701,3.2723,3.2721,3.2824,3.2801,3.2813,3.2842,3.2942,3.2947,3.295,3.2964,3.2971,3.2976,0,0,0,0,0,0,3.2479,3.2529,3.2531,3.259,3.2624,3.2666,3.2694,3.2698,3.2735,3.2732,3.275,3.2759,3.2814,3.2833,3.2807,3.2902,3.2882,3.2888,3.2887,3.2894,3.2899,3.2894,3.2796,0,0,0,0,0,3.2487,3.2527,3.2568,3.2616,3.2633,3.2661,3.2685,3.2695,3.273,3.2744,3.2771,3.2804,3.2844,3.287,3.2908,3.2969,3.2979,3.2996,3.3001,3.3005,3.3011,3.3048,3.3056,3.2966,3.2966,3.2966,0,0,3.2501,3.2533,3.2557,3.2617,3.2644,3.2686,3.2673,3.2716,3.2748,3.275,3.2805,3.2826,3.2864,3.2923,3.295,3.2941,3.3039,3.301,3.3013,3.3017,3.3053,3.3061,3.3069,3.2968,3.2968,3.2967,0,0,3.2549,3.2576,3.2621,3.265,3.2693,3.2712,3.2723,3.2766,3.2781,3.2837,3.2841,3.2878,3.2946,3.2975,3.2998,3.3062,3.3062,3.3074,3.3102,3.3138,3.3145,3.3151,3.3177,3.3185,3.308,3.308,3.308,0,3.256,3.2624,3.2643,3.2689,3.2716,3.2723,3.277,3.2796,3.2849,3.2868,3.2857,3.2946,3.2972,3.304,3.3056,3.3074,3.3088,3.3069,3.3143,3.3149,3.3155,3.318,3.3189,3.3081,3.3081,3.3081,3.308,0,3.2638,3.2683,3.2714,3.2768,3.2799,3.2844,3.2871,3.2899,3.2908,3.2929,3.2987,3.3019,3.3067,3.3083,3.309,3.3153,3.3146,3.3139,3.3119,3.3165,3.3189,3.3198,3.3083,3.3082,3.3082,3.3082,0,0,3.2685,3.2753,3.2764,3.2791,3.2841,3.2876,3.2922,3.2971,3.2997,3.3033,3.3074,3.3134,3.3129,3.3156,3.3167,3.3198,3.3251,3.3187,3.3189,3.32,3.3325,3.3332,3.3342,3.3252,3.3253,3.3255,3.3323,0,3.274,3.2825,3.2846,3.2919,3.2962,3.2972,3.3013,3.3048,3.307,3.3109,3.3132,3.3176,3.3164,3.3181,3.3213,3.3238,3.3277,3.3233,3.329,3.3292,3.3282,3.3354,3.336,3.3423,3.3332,3.3333,3.3335,0,3.2814,3.2857,3.2935,3.2984,3.3003,3.304,3.3088,3.3126,3.3167,3.3181,3.3213,3.3222,3.3273,3.3251,3.3321,3.3291,3.3316,3.3333,3.3336,3.3342,3.3317,3.3364,3.3442,3.3453,3.3349,3.3347,3.3346,0,3.2844,3.2921,3.2979,3.3001,3.3058,3.3085,3.3109,3.315,3.3179,3.3221,3.3241,3.3287,3.3313,3.3349,3.3371,3.3352,3.3441,3.342,3.3455,3.3454,3.3473,3.3471,3.3558,3.3487,3.3486,3.3486,3.3486,0,3.2904,3.2952,3.2994,3.3029,3.3084,3.3108,3.3161,3.3186,3.3223,3.3264,3.3274,3.3313,3.3339,3.3381,3.3398,3.3456,3.3467,3.348,3.3484,3.348,3.3478,3.3497,3.3493,3.3489,3.3488,3.3488,3.3487,0,3.2946,3.2975,3.304,3.3091,3.3105,3.3143,3.3187,3.3223,3.3246,3.3298,3.3311,3.3347,3.3398,3.3424,3.3486,3.3498,3.3564,3.3564,3.355,3.3552,3.3587,3.3584,3.3689,3.3705,3.3621,3.3622,3.3623,0,3.2983,3.3021,3.3077,3.3107,3.3134,3.318,3.3212,3.3237,3.3269,3.3322,3.3352,3.3404,3.3447,3.3528,3.3559,3.3607,3.361,3.3644,3.3617,3.3614,3.3614,3.3612,3.3617,3.3649,3.3649,3.365,3.3651,0,3.3046,3.306,3.3105,3.3158,3.3196,3.3237,3.3278,3.3301,3.3334,3.337,3.3423,3.3457,3.3523,3.3575,3.3627,3.3652,3.3658,3.3659,3.367,3.3667,3.3658,3.3666,3.3565,3.3656,3.3656,3.3655,3.3655,3.3655,3.3088,3.3124,3.3171,3.3222,3.3257,3.3296,3.3333,3.3363,3.3409,3.3466,3.3478,3.3536,3.3579,3.365,3.3678,3.3723,3.3716,3.3731,3.3735,3.3739,3.3742,3.3651,3.3732,3.3732,3.3732,3.3732,3.3732,0,3.3154,3.3185,3.3233,3.3292,3.3333,3.3337,3.3384,3.3418,3.3469,3.351,3.3554,3.3617,3.3669,3.3706,3.3759,3.3789,3.3793,3.3802,3.38,3.3807,3.3744,3.3731,3.3798,3.3798,3.3798,3.3798,3.3798,3.3798,3.3193,3.3255,3.3275,3.3355,3.3386,3.3445,3.3472,3.3508,3.3542,3.3613,3.3658,3.3682,3.3723,3.378,3.3828,3.3838,3.3857,3.3867,3.3877,3.3818,3.3811,3.3804,3.3792,3.3871,3.3871,3.3936,3.3937,3.3937]}]]